RYR51AD LEPA-EDDK

Flight info

Callsign RYR51AD
Flight time 1h 53m
Altitude 36000
Route MEROS N853 LUMAS DCT MAXIR DCT LUSOL DCT BODRU DCT OKTET DCT IRMAR DCT KINES DCT VANAS DCT MOBLO DCT UBIMA DCT GILIR DCT PENDU DCT IXILU DCT EPL DCT JARNY DCT ROUSY M624 DIK N853 ARCKY T853 IBESA T860 ERUKI ERUKI1F
Aircraft A320/M-SDE3FGHIRWY/LB1

Departure

Time 2026-05-01 10:26
Airport Palma de Mallorca Airport (LEPA)

Arrival

Time 2026-05-01 12:19
Airport Cologne Bonn Airport (EDDK)
Time Latitude Longitude Altitude Speed Heading
2026-05-01 10:05 39.54835 2.73571 39 ft 0 kts 58°
2026-05-01 10:16 39.54832 2.73566 38 ft 3 kts 58°
2026-05-01 10:17 39.54820 2.73541 38 ft 3 kts 58°
2026-05-01 10:17 39.54781 2.73522 36 ft 4 kts 330°
2026-05-01 10:17 39.54759 2.73539 37 ft 4 kts 329°
2026-05-01 10:18 39.54743 2.73552 36 ft 0 kts 329°
2026-05-01 10:21 39.54754 2.73543 37 ft 4 kts 329°
2026-05-01 10:21 39.54714 2.73484 38 ft 11 kts 150°
2026-05-01 10:21 39.54641 2.73541 37 ft 13 kts 145°
2026-05-01 10:22 39.54543 2.73606 38 ft 12 kts 235°
2026-05-01 10:22 39.54435 2.73376 37 ft 18 kts 238°
2026-05-01 10:23 39.54367 2.73235 38 ft 19 kts 239°
2026-05-01 10:23 39.54268 2.73247 38 ft 10 kts 92°
2026-05-01 10:23 39.54267 2.73364 38 ft 16 kts 91°
2026-05-01 10:24 39.54290 2.73517 38 ft 0 kts 60°
2026-05-01 10:25 39.54290 2.73518 38 ft 0 kts 60°
2026-05-01 10:25 39.54580 2.74129 39 ft 99 kts 58°
2026-05-01 10:26 39.55027 2.75076 85 ft 140 kts 59°
2026-05-01 10:26 39.55521 2.76135 696 ft 137 kts 59°
2026-05-01 10:26 39.56521 2.78387 1565 ft 161 kts 60°
2026-05-01 10:27 39.57799 2.81179 2385 ft 190 kts 60°
2026-05-01 10:27 39.59231 2.84291 3488 ft 208 kts 60°
2026-05-01 10:28 39.59980 2.85926 4180 ft 213 kts 61°
2026-05-01 10:28 39.61504 2.89261 5734 ft 219 kts 61°
2026-05-01 10:28 39.62285 2.90976 6502 ft 225 kts 62°
2026-05-01 10:29 39.63982 2.94875 7316 ft 268 kts 62°
2026-05-01 10:29 39.64908 2.97023 7989 ft 277 kts 62°
2026-05-01 10:30 39.66840 3.01495 9421 ft 291 kts 62°
2026-05-01 10:30 39.68873 3.06200 10510 ft 318 kts 62°
2026-05-01 10:31 39.71177 3.11520 11183 ft 351 kts 61°
2026-05-01 10:31 39.73600 3.17127 12551 ft 359 kts 60°
2026-05-01 10:32 39.76060 3.22841 13951 ft 365 kts 59°
2026-05-01 10:32 39.77334 3.25717 14569 ft 368 kts 55°
2026-05-01 10:32 39.80610 3.30867 15769 ft 373 kts 47°
2026-05-01 10:33 39.84039 3.35994 16951 ft 379 kts 47°
2026-05-01 10:33 39.87521 3.41214 18141 ft 385 kts 48°
2026-05-01 10:34 39.89280 3.43864 18714 ft 389 kts 48°
2026-05-01 10:34 39.91050 3.46540 19254 ft 392 kts 48°
2026-05-01 10:34 39.92836 3.49239 19800 ft 395 kts 48°
2026-05-01 10:35 39.96435 3.54658 20885 ft 401 kts 47°
2026-05-01 10:35 39.98274 3.57425 21423 ft 405 kts 48°
2026-05-01 10:35 40.00120 3.60209 21964 ft 407 kts 48°
2026-05-01 10:35 40.01976 3.63016 22482 ft 410 kts 48°
2026-05-01 10:36 40.05721 3.68703 23479 ft 416 kts 48°
2026-05-01 10:36 40.07613 3.71578 23932 ft 419 kts 48°
2026-05-01 10:36 40.09518 3.74472 24334 ft 422 kts 48°
2026-05-01 10:37 40.11435 3.77388 24727 ft 424 kts 48°
2026-05-01 10:37 40.15304 3.83279 25487 ft 430 kts 48°
2026-05-01 10:37 40.17252 3.86255 25869 ft 432 kts 48°
2026-05-01 10:38 40.19215 3.89256 26238 ft 435 kts 48°
2026-05-01 10:38 40.21188 3.92269 26591 ft 438 kts 48°
2026-05-01 10:38 40.23173 3.95303 26939 ft 440 kts 48°
2026-05-01 10:38 40.25168 3.98357 27291 ft 443 kts 48°
2026-05-01 10:39 40.27172 4.01433 27644 ft 445 kts 48°
2026-05-01 10:39 40.29188 4.04527 27989 ft 448 kts 48°
2026-05-01 10:39 40.31217 4.07640 28339 ft 451 kts 48°
2026-05-01 10:39 40.33255 4.10773 28676 ft 453 kts 48°
2026-05-01 10:40 40.35304 4.13926 29023 ft 456 kts 48°
2026-05-01 10:40 40.37334 4.17058 29346 ft 458 kts 48°
2026-05-01 10:40 40.39401 4.20254 29667 ft 461 kts 48°
2026-05-01 10:40 40.41479 4.23468 30005 ft 463 kts 48°
2026-05-01 10:41 40.43573 4.26705 30318 ft 465 kts 48°
2026-05-01 10:41 40.45670 4.29936 30711 ft 464 kts 46°
2026-05-01 10:41 40.50610 4.35257 31492 ft 458 kts 27°
2026-05-01 10:42 40.53475 4.37043 31885 ft 455 kts 18°
2026-05-01 10:42 40.56495 4.38205 32283 ft 451 kts
2026-05-01 10:42 40.59576 4.38945 32682 ft 450 kts
2026-05-01 10:42 40.62653 4.39677 33086 ft 449 kts
2026-05-01 10:43 40.65725 4.40412 33497 ft 448 kts
2026-05-01 10:43 40.68792 4.41148 33901 ft 448 kts
2026-05-01 10:43 40.71853 4.41883 34309 ft 447 kts
2026-05-01 10:43 40.74915 4.42620 34659 ft 446 kts
2026-05-01 10:44 40.77960 4.43355 34993 ft 446 kts
2026-05-01 10:44 40.81014 4.44091 35318 ft 445 kts
2026-05-01 10:44 40.84059 4.44822 35629 ft 445 kts
2026-05-01 10:44 40.87103 4.45551 35922 ft 445 kts
2026-05-01 10:45 40.90148 4.46282 36167 ft 445 kts
2026-05-01 10:45 40.96286 4.47765 36236 ft 451 kts
2026-05-01 10:46 41.02471 4.49261 36236 ft 452 kts
2026-05-01 10:46 41.08665 4.50769 36235 ft 453 kts
2026-05-01 10:47 41.14834 4.52277 36239 ft 454 kts
2026-05-01 10:47 41.21044 4.53792 36244 ft 454 kts
2026-05-01 10:48 41.27260 4.55309 36258 ft 454 kts
2026-05-01 10:48 41.33482 4.56833 36258 ft 455 kts
2026-05-01 10:49 41.39705 4.58365 36267 ft 454 kts
2026-05-01 10:49 41.45918 4.59901 36274 ft 453 kts
2026-05-01 10:50 41.52114 4.61426 36283 ft 452 kts
2026-05-01 10:50 41.58296 4.62951 36279 ft 451 kts
2026-05-01 10:51 41.64471 4.64475 36284 ft 451 kts
2026-05-01 10:51 41.70642 4.66029 36291 ft 452 kts 10°
2026-05-01 10:52 41.76487 4.69175 36294 ft 457 kts 28°
2026-05-01 10:52 41.81934 4.73578 36290 ft 457 kts 28°
2026-05-01 10:53 41.87346 4.77930 36292 ft 456 kts 28°
2026-05-01 10:53 41.92792 4.82305 36295 ft 456 kts 28°
2026-05-01 10:54 41.98230 4.86695 36293 ft 456 kts 28°
2026-05-01 10:54 42.03666 4.91106 36300 ft 456 kts 28°
2026-05-01 10:55 42.09097 4.95517 36315 ft 456 kts 28°
2026-05-01 10:55 42.14525 4.99920 36313 ft 455 kts 28°
2026-05-01 10:56 42.19938 5.04327 36322 ft 454 kts 28°
2026-05-01 10:56 42.25340 5.08737 36320 ft 454 kts 28°
2026-05-01 10:57 42.30702 5.13115 36320 ft 453 kts 28°
2026-05-01 10:57 42.36094 5.17527 36325 ft 453 kts 28°
2026-05-01 10:58 42.41487 5.21951 36318 ft 453 kts 28°
2026-05-01 10:58 42.46868 5.26390 36322 ft 453 kts 28°
2026-05-01 10:59 42.52252 5.30823 36329 ft 453 kts 28°
2026-05-01 10:59 42.57636 5.35260 36336 ft 453 kts 28°
2026-05-01 11:00 42.63008 5.39711 36334 ft 452 kts 28°
2026-05-01 11:00 42.68374 5.44162 36339 ft 452 kts 28°
2026-05-01 11:01 42.73706 5.48589 36336 ft 452 kts 28°
2026-05-01 11:01 42.79066 5.53048 36336 ft 452 kts 28°
2026-05-01 11:02 42.84422 5.57521 36335 ft 452 kts 28°
2026-05-01 11:02 42.89777 5.61998 36314 ft 452 kts 28°
2026-05-01 11:03 42.94262 5.65755 36328 ft 452 kts 28°
2026-05-01 11:03 42.99582 5.70218 36325 ft 452 kts 28°
2026-05-01 11:04 43.04940 5.74717 36336 ft 451 kts 28°
2026-05-01 11:04 43.10275 5.79214 36347 ft 450 kts 28°
2026-05-01 11:05 43.15593 5.83717 36341 ft 449 kts 28°
2026-05-01 11:05 43.20904 5.88219 36337 ft 449 kts 28°
2026-05-01 11:06 43.26213 5.92718 36333 ft 448 kts 28°
2026-05-01 11:06 43.31515 5.97219 36337 ft 448 kts 28°
2026-05-01 11:07 43.39687 6.03267 36334 ft 441 kts 14°
2026-05-01 11:07 43.45626 6.04679 36326 ft 434 kts
2026-05-01 11:08 43.51655 6.05271 36327 ft 435 kts
2026-05-01 11:09 43.60726 6.06184 36313 ft 436 kts
2026-05-01 11:09 43.66776 6.06794 36314 ft 436 kts
2026-05-01 11:10 43.75843 6.07917 36317 ft 438 kts
2026-05-01 11:10 43.81584 6.10842 36327 ft 443 kts 23°
2026-05-01 11:11 43.87101 6.14623 36339 ft 442 kts 23°
2026-05-01 11:11 43.92610 6.18387 36334 ft 441 kts 23°
2026-05-01 11:12 43.98112 6.22140 36332 ft 441 kts 23°
2026-05-01 11:12 44.03576 6.25871 36331 ft 440 kts 23°
2026-05-01 11:13 44.09066 6.29645 36324 ft 440 kts 23°
2026-05-01 11:13 44.14558 6.33433 36320 ft 440 kts 23°
2026-05-01 11:14 44.20043 6.37217 36318 ft 440 kts 23°
2026-05-01 11:14 44.25531 6.41003 36317 ft 440 kts 23°
2026-05-01 11:15 44.31025 6.44798 36317 ft 440 kts 23°
2026-05-01 11:15 44.36514 6.48601 36324 ft 440 kts 24°
2026-05-01 11:16 44.41986 6.52405 36322 ft 439 kts 24°
2026-05-01 11:16 44.47456 6.56214 36315 ft 439 kts 24°
2026-05-01 11:17 44.52920 6.60029 36312 ft 439 kts 24°
2026-05-01 11:17 44.58388 6.63847 36307 ft 439 kts 24°
2026-05-01 11:18 44.63855 6.67679 36309 ft 439 kts 24°
2026-05-01 11:18 44.69322 6.71522 36329 ft 439 kts 24°
2026-05-01 11:19 44.74790 6.75363 36322 ft 439 kts 24°
2026-05-01 11:19 44.80484 6.78274 36320 ft 434 kts
2026-05-01 11:20 44.86484 6.78615 36312 ft 432 kts 355°
2026-05-01 11:20 44.92492 6.78203 36308 ft 433 kts 356°
2026-05-01 11:21 44.98515 6.77818 36315 ft 434 kts 356°
2026-05-01 11:21 45.04553 6.77427 36317 ft 435 kts 356°
2026-05-01 11:22 45.10612 6.77027 36322 ft 436 kts 356°
2026-05-01 11:22 45.16685 6.76628 36309 ft 437 kts 356°
2026-05-01 11:23 45.22767 6.76221 36304 ft 438 kts 356°
2026-05-01 11:23 45.28817 6.75819 36294 ft 439 kts 356°
2026-05-01 11:24 45.34919 6.75409 36295 ft 440 kts 356°
2026-05-01 11:25 45.44097 6.74792 36298 ft 441 kts 356°
2026-05-01 11:25 45.53290 6.74178 36300 ft 441 kts 356°
2026-05-01 11:26 45.62494 6.73538 36300 ft 442 kts 356°
2026-05-01 11:27 45.68636 6.73116 36288 ft 442 kts 356°
2026-05-01 11:27 45.74786 6.72689 36291 ft 443 kts 356°
2026-05-01 11:28 45.80943 6.72268 36292 ft 443 kts 356°
2026-05-01 11:28 45.87107 6.71851 36290 ft 444 kts 356°
2026-05-01 11:29 45.96376 6.71213 36284 ft 445 kts 356°
2026-05-01 11:30 46.05677 6.70585 36269 ft 447 kts 356°
2026-05-01 11:30 46.11903 6.70005 36272 ft 448 kts 349°
2026-05-01 11:31 46.17878 6.67581 36281 ft 447 kts 340°
2026-05-01 11:31 46.23770 6.64710 36284 ft 447 kts 340°
2026-05-01 11:32 46.29670 6.61833 36286 ft 448 kts 340°
2026-05-01 11:32 46.35580 6.58959 36293 ft 448 kts 340°
2026-05-01 11:33 46.41488 6.56074 36301 ft 448 kts 341°
2026-05-01 11:33 46.47395 6.53182 36310 ft 448 kts 341°
2026-05-01 11:34 46.53303 6.50280 36313 ft 448 kts 341°
2026-05-01 11:34 46.59208 6.47365 36319 ft 448 kts 341°
2026-05-01 11:35 46.65118 6.44442 36296 ft 449 kts 340°
2026-05-01 11:35 46.71045 6.41510 36294 ft 450 kts 340°
2026-05-01 11:36 46.76948 6.38585 36297 ft 451 kts 340°
2026-05-01 11:36 46.82894 6.35638 36292 ft 452 kts 341°
2026-05-01 11:37 46.88847 6.32679 36288 ft 452 kts 341°
2026-05-01 11:37 46.94800 6.29702 36292 ft 452 kts 340°
2026-05-01 11:38 47.00754 6.26717 36293 ft 452 kts 340°
2026-05-01 11:38 47.06684 6.23637 36285 ft 452 kts 335°
2026-05-01 11:39 47.12350 6.19586 36283 ft 453 kts 333°
2026-05-01 11:39 47.18013 6.15511 36281 ft 454 kts 333°
2026-05-01 11:40 47.23686 6.11414 36275 ft 455 kts 333°
2026-05-01 11:40 47.29369 6.07296 36274 ft 456 kts 333°
2026-05-01 11:41 47.35290 6.04014 36275 ft 456 kts 348°
2026-05-01 11:41 47.41607 6.03413 36279 ft 456 kts
2026-05-01 11:42 47.47964 6.03570 36282 ft 457 kts
2026-05-01 11:42 47.54317 6.03700 36288 ft 457 kts
2026-05-01 11:43 47.60630 6.03828 36295 ft 457 kts
2026-05-01 11:43 47.67025 6.03982 36295 ft 456 kts
2026-05-01 11:44 47.76496 6.04204 36298 ft 455 kts
2026-05-01 11:44 47.82830 6.04391 36298 ft 455 kts
2026-05-01 11:45 47.89159 6.04604 36300 ft 455 kts
2026-05-01 11:45 47.95485 6.04811 36302 ft 455 kts
2026-05-01 11:46 48.01809 6.05002 36303 ft 455 kts
2026-05-01 11:46 48.08138 6.05198 36300 ft 454 kts
2026-05-01 11:47 48.14457 6.05397 36299 ft 454 kts
2026-05-01 11:47 48.20773 6.05597 36297 ft 454 kts
2026-05-01 11:48 48.27086 6.05795 36294 ft 454 kts
2026-05-01 11:48 48.33396 6.05998 36295 ft 453 kts
2026-05-01 11:49 48.39701 6.06269 36296 ft 453 kts
2026-05-01 11:49 48.45999 6.06587 36298 ft 453 kts
2026-05-01 11:50 48.52295 6.06889 36321 ft 453 kts
2026-05-01 11:50 48.58591 6.07172 36324 ft 453 kts
2026-05-01 11:51 48.63830 6.07407 36316 ft 453 kts
2026-05-01 11:51 48.70137 6.07697 36313 ft 454 kts
2026-05-01 11:52 48.77470 6.08041 36314 ft 454 kts
2026-05-01 11:52 48.82766 6.08289 36314 ft 454 kts
2026-05-01 11:53 48.89089 6.08581 36316 ft 454 kts
2026-05-01 11:53 48.95406 6.08876 36317 ft 454 kts
2026-05-01 11:54 49.01732 6.09181 36315 ft 455 kts
2026-05-01 11:54 49.08056 6.09471 36316 ft 455 kts
2026-05-01 11:55 49.14378 6.09772 36319 ft 455 kts
2026-05-01 11:55 49.20702 6.10074 36318 ft 455 kts
2026-05-01 11:56 49.27025 6.10400 36320 ft 455 kts
2026-05-01 11:56 49.33353 6.10744 36319 ft 455 kts
2026-05-01 11:57 49.39676 6.11081 36317 ft 455 kts
2026-05-01 11:57 49.45959 6.11411 36322 ft 455 kts
2026-05-01 11:58 49.52286 6.11707 36316 ft 455 kts
2026-05-01 11:59 49.61759 6.12051 36324 ft 453 kts
2026-05-01 11:59 49.68062 6.12282 36326 ft 453 kts
2026-05-01 12:00 49.74365 6.12521 35469 ft 453 kts
2026-05-01 12:00 49.77520 6.12642 34977 ft 454 kts
2026-05-01 12:00 49.83855 6.12889 33973 ft 457 kts
2026-05-01 12:01 49.87033 6.13012 33433 ft 456 kts
2026-05-01 12:01 49.90199 6.13089 32897 ft 453 kts
2026-05-01 12:01 49.93341 6.13113 32375 ft 449 kts
2026-05-01 12:01 49.96452 6.13102 31861 ft 445 kts
2026-05-01 12:02 49.99529 6.13081 31356 ft 441 kts
2026-05-01 12:02 50.02585 6.13068 30862 ft 436 kts
2026-05-01 12:02 50.05604 6.13072 30370 ft 432 kts
2026-05-01 12:02 50.08592 6.13086 29803 ft 427 kts
2026-05-01 12:03 50.11546 6.13106 29246 ft 423 kts
2026-05-01 12:03 50.14475 6.13130 28697 ft 419 kts
2026-05-01 12:03 50.17379 6.13149 28152 ft 416 kts
2026-05-01 12:03 50.20258 6.13167 27630 ft 412 kts
2026-05-01 12:04 50.23114 6.13182 27103 ft 409 kts
2026-05-01 12:04 50.25950 6.13201 26592 ft 406 kts
2026-05-01 12:04 50.28736 6.13702 26089 ft 402 kts 14°
2026-05-01 12:04 50.31342 6.15032 25596 ft 397 kts 26°
2026-05-01 12:05 50.33760 6.17162 25128 ft 393 kts 35°
2026-05-01 12:05 50.38285 6.21833 24180 ft 391 kts 34°
2026-05-01 12:05 50.40553 6.24157 23856 ft 386 kts 34°
2026-05-01 12:06 50.42773 6.26434 24030 ft 381 kts 34°
2026-05-01 12:06 50.44997 6.28720 24208 ft 384 kts 34°
2026-05-01 12:06 50.47219 6.31080 23890 ft 387 kts 40°
2026-05-01 12:06 50.49136 6.34021 23286 ft 386 kts 52°
2026-05-01 12:07 50.50577 6.37554 22699 ft 384 kts 65°
2026-05-01 12:07 50.51641 6.41400 22119 ft 384 kts 68°
2026-05-01 12:07 50.52690 6.45258 21564 ft 384 kts 68°
2026-05-01 12:07 50.53752 6.49104 20986 ft 384 kts 65°
2026-05-01 12:08 50.55275 6.52551 20379 ft 389 kts 47°
2026-05-01 12:08 50.57454 6.55100 19767 ft 395 kts 29°
2026-05-01 12:08 50.60037 6.56640 19173 ft 398 kts 20°
2026-05-01 12:08 50.62672 6.57963 18594 ft 398 kts 20°
2026-05-01 12:09 50.65312 6.59276 17931 ft 398 kts 19°
2026-05-01 12:09 50.67950 6.60585 17273 ft 397 kts 20°
2026-05-01 12:09 50.70585 6.61895 16628 ft 396 kts 20°
2026-05-01 12:09 50.73200 6.63202 16001 ft 394 kts 20°
2026-05-01 12:10 50.75806 6.64511 15389 ft 392 kts 20°
2026-05-01 12:10 50.80931 6.67096 14209 ft 386 kts 20°
2026-05-01 12:10 50.83482 6.68386 13557 ft 383 kts 20°
2026-05-01 12:11 50.88523 6.70942 12276 ft 378 kts 20°
2026-05-01 12:11 50.91021 6.72208 11651 ft 375 kts 20°
2026-05-01 12:11 50.93499 6.73462 11048 ft 373 kts 20°
2026-05-01 12:12 50.95961 6.74709 10448 ft 371 kts 19°
2026-05-01 12:12 50.98412 6.75951 9824 ft 369 kts 20°
2026-05-01 12:12 51.00848 6.77187 9163 ft 362 kts 20°
2026-05-01 12:12 51.03198 6.78379 8475 ft 348 kts 20°
2026-05-01 12:13 51.05424 6.79681 7789 ft 334 kts 31°
2026-05-01 12:13 51.07166 6.81938 7118 ft 318 kts 55°
2026-05-01 12:13 51.08141 6.84977 6439 ft 304 kts 80°
2026-05-01 12:13 51.08213 6.88227 5726 ft 290 kts 105°
2026-05-01 12:14 51.07414 6.91057 5035 ft 278 kts 131°
2026-05-01 12:14 51.05920 6.92867 4321 ft 270 kts 160°
2026-05-01 12:14 51.04146 6.93585 4028 ft 252 kts 167°
2026-05-01 12:14 51.02498 6.94171 3833 ft 235 kts 167°
2026-05-01 12:15 51.00962 6.94809 3582 ft 221 kts 156°
2026-05-01 12:15 50.99689 6.96047 3328 ft 211 kts 142°
2026-05-01 12:15 50.98609 6.97528 3062 ft 200 kts 138°
2026-05-01 12:15 50.97613 6.98978 2801 ft 189 kts 136°
2026-05-01 12:16 50.96677 7.00343 2554 ft 177 kts 136°
2026-05-01 12:16 50.95799 7.01625 2341 ft 166 kts 138°
2026-05-01 12:16 50.94978 7.02821 2155 ft 160 kts 138°
2026-05-01 12:16 50.94161 7.04013 1915 ft 160 kts 138°
2026-05-01 12:17 50.93359 7.05181 1698 ft 151 kts 137°
2026-05-01 12:17 50.92616 7.06261 1484 ft 137 kts 136°
2026-05-01 12:17 50.91941 7.07243 1319 ft 128 kts 136°
2026-05-01 12:17 50.91289 7.08193 1140 ft 126 kts 136°
2026-05-01 12:18 50.90642 7.09132 966 ft 126 kts 137°
2026-05-01 12:18 50.89994 7.10069 776 ft 126 kts 138°
2026-05-01 12:18 50.89354 7.10999 625 ft 125 kts 137°
2026-05-01 12:18 50.88707 7.11941 449 ft 127 kts 135°
2026-05-01 12:19 50.88061 7.12887 312 ft 126 kts 136°
2026-05-01 12:19 50.87438 7.13788 243 ft 110 kts 137°
2026-05-01 12:19 50.86992 7.14436 256 ft 60 kts 138°
2026-05-01 12:19 50.86882 7.14514 260 ft 7 kts 242°
2026-05-01 12:20 50.86880 7.14378 259 ft 18 kts 276°
2026-05-01 12:20 50.86909 7.14123 255 ft 26 kts 279°
2026-05-01 12:20 50.86978 7.13844 245 ft 31 kts 318°
2026-05-01 12:20 50.87108 7.13655 240 ft 25 kts 317°
2026-05-01 12:21 50.87246 7.13454 234 ft 28 kts 317°
2026-05-01 12:21 50.87377 7.13264 232 ft 24 kts 318°
2026-05-01 12:21 50.87483 7.13114 232 ft 21 kts 318°
2026-05-01 12:21 50.87594 7.12953 232 ft 21 kts 317°
2026-05-01 12:22 50.87699 7.12798 232 ft 21 kts 318°
2026-05-01 12:22 50.87771 7.12657 232 ft 11 kts 275°
2026-05-01 12:22 50.87751 7.12557 234 ft 10 kts 240°
2026-05-01 12:22 50.87759 7.12450 232 ft 10 kts 288°
2026-05-01 12:23 50.87768 7.12410 232 ft 0 kts 287°